DW6722 Weather Reports


time (UTC)temp
F
wind
direction
speed
knots
gust
knots
rain 1hr
in
rain 24hr
in
rain mn
in
humidity
%
barometer
mb
20260507151047 59 43 0.0 2.6 0.00 0.00 0.00 51 1015.8
20260507150547 59 46 0.0 4.3 0.00 0.00 0.00 52 1015.8
20260507150047 59 28 2.6 4.3 0.00 0.00 0.00 51 1015.8
20260507145546 59 20 1.7 5.2 0.00 0.00 0.00 53 1015.8
20260507145046 59 330 1.7 5.2 0.00 0.00 0.00 52 1015.8
20260507144546 59 344 1.7 3.5 0.00 0.00 0.00 53 1015.8
20260507144047 59 43 1.7 3.5 0.00 0.00 0.00 53 1015.8
20260507143545 59 39 1.7 5.2 0.00 0.00 0.00 51 1015.9
20260507143046 59 356 2.6 5.2 0.00 0.00 0.00 53 1015.9
20260507142545 59 348 4.3 5.2 0.00 0.00 0.00 56 1015.9
20260507142046 59 323 0.9 4.3 0.00 0.00 0.00 53 1015.9
20260507141551 59 14 0.9 4.3 0.00 0.00 0.00 53 1016.0
20260507141044 59 46 0.9 5.2 0.00 0.00 0.00 52 1016.0
20260507140545 59 14 3.5 7.8 0.00 0.00 0.00 56 1016.0
20260507140043 59 26 5.2 7.8 0.00 0.00 0.00 55 1016.0
20260507135543 59 46 2.6 5.2 0.00 0.00 0.00 54 1016.1
20260507135042 59 35 2.6 5.2 0.00 0.00 0.00 53 1016.0
20260507134551 59 32 1.7 7.0 0.00 0.00 0.00 55 1016.1
20260507134042 59 12 3.5 7.0 0.00 0.00 0.00 52 1016.1
20260507133542 59 28 3.5 6.1 0.00 0.00 0.00 54 1016.1
20260507133042 59 317 3.5 7.0 0.00 0.00 0.00 52 1016.1
20260507132541 59 12 4.3 7.0 0.00 0.00 0.00 56 1016.1
20260507132041 59 351 1.7 5.2 0.00 0.00 0.00 55 1016.1
20260507131541 59 358 3.5 7.8 0.00 0.00 0.00 55 1016.1
20260507131042 58 333 1.7 7.8 0.00 0.00 0.00 54 1016.1
20260507130545 58 4 2.6 7.8 0.00 0.00 0.00 54 1016.1
20260507130043 58 26 3.5 7.8 0.00 0.00 0.00 54 1016.1
20260507125541 58 354 6.1 7.8 0.00 0.00 0.00 56 1016.1
20260507125043 58 331 4.3 10.4 0.00 0.00 0.00 55 1016.1
20260507124540 58 1 7.8 10.4 0.00 0.00 0.00 55 1016.0
20260507124040 59 34 4.3 7.8 0.00 0.00 0.00 54 1016.0
20260507123538 58 84 0.9 7.0 0.00 0.00 0.00 53 1016.0
20260507123039 58 6 4.3 7.0 0.00 0.00 0.00 53 1016.0
20260507122540 58 327 3.5 7.8 0.00 0.00 0.00 54 1016.0
20260507122041 58 316 4.3 9.6 0.00 0.00 0.00 51 1016.0
20260507121540 59 359 3.5 7.8 0.00 0.00 0.00 55 1016.0
20260507121039 59 301 0.9 8.7 0.00 0.00 0.00 56 1016.0
20260507120536 59 38 2.6 8.7 0.00 0.00 0.00 53 1015.9
20260507120036 59 307 3.5 6.1 0.00 0.00 0.00 53 1016.0
20260507115536 60 344 0.9 3.5 0.00 0.00 0.00 54 1016.0
20260507115036 59 283 0.9 9.6 0.00 0.00 0.00 53 1016.0
20260507114536 59 319 4.3 9.6 0.00 0.00 0.00 55 1016.0
20260507114036 58 285 1.7 5.2 0.00 0.00 0.00 56 1016.0
20260507113532 59 18 0.9 3.5 0.00 0.00 0.00 56 1016.0
20260507113030 58 349 0.0 5.2 0.00 0.00 0.00 56 1016.0
20260507112529 57 304 2.6 5.2 0.00 0.00 0.00 56 1016.1
20260507112029 57 293 0.9 7.0 0.00 0.00 0.00 58 1016.1
20260507111530 57 307 5.2 7.0 0.00 0.00 0.00 58 1016.2
20260507111027 57 15 3.5 6.1 0.00 0.00 0.00 57 1016.2
20260507110527 57 18 3.5 7.8 0.00 0.00 0.00 57 1016.3
20260507110033 57 6 1.7 6.1 0.00 0.00 0.00 59 1016.2
20260507105526 57 11 1.7 6.1 0.00 0.00 0.00 59 1016.3
20260507105025 56 330 1.7 5.2 0.00 0.00 0.00 56 1016.3
20260507104525 56 310 2.6 7.8 0.00 0.00 0.00 56 1016.3
20260507104024 56 2 3.5 9.6 0.00 0.00 0.00 58 1016.3
20260507103522 56 351 5.2 7.8 0.00 0.00 0.00 60 1016.3
20260507103024 56 329 2.6 7.0 0.00 0.00 0.00 60 1016.4
20260507102519 55 314 1.7 7.0 0.00 0.00 0.00 59 1016.3
20260507102018 55 19 3.5 7.0 0.00 0.00 0.00 60 1016.4
20260507101521 55 354 5.2 9.6 0.00 0.00 0.00 62 1016.3
20260507101021 55 26 4.3 9.6 0.00 0.00 0.00 63 1016.3
20260507100515 55 1 4.3 6.1 0.00 0.00 0.00 65 1016.3
20260507100014 55 319 3.5 7.8 0.00 0.00 0.00 66 1016.3
20260507095513 55 337 5.2 7.8 0.00 0.00 0.00 65 1016.3
20260507095015 54 300 0.9 7.0 0.00 0.00 0.00 66 1016.2
20260507094510 54 322 2.6 7.8 0.00 0.00 0.00 67 1016.2
20260507094009 54 29 4.3 7.8 0.00 0.00 0.00 67 1016.2
20260507093508 54 340 2.6 8.7 0.00 0.00 0.00 68 1016.2
20260507093007 54 356 5.2 8.7 0.00 0.00 0.00 68 1016.2
20260507092506 53 19 4.3 7.8 0.00 0.00 0.00 68 1016.1
20260507092004 53 349 4.3 9.6 0.00 0.00 0.00 68 1016.1
20260507091504 53 11 5.2 9.6 0.00 0.00 0.00 69 1016.1
20260507091003 53 343 4.3 8.7 0.00 0.00 0.00 68 1016.1
20260507090503 53 12 5.2 9.6 0.00 0.00 0.00 68 1016.1
20260507090108 53 354 6.1 9.6 0.00 0.00 0.00 68 1016.0
20260507085602 53 9 4.3 7.8 0.00 0.00 0.00 68 1016.1
20260507085057 53 19 6.1 7.8 0.00 0.00 0.00 68 1016.0
20260507084558 52 13 4.3 9.6 0.00 0.00 0.00 69 1016.0
20260507084056 52 4 5.2 7.8 0.00 0.00 0.00 69 1016.0
20260507083555 52 355 3.5 7.0 0.00 0.00 0.00 70 1016.0
20260507083056 52 358 4.3 8.7 0.00 0.00 0.00 71 1016.0
20260507082555 52 8 7.0 8.7 0.00 0.00 0.00 68 1016.1
20260507082056 52 13 4.3 7.8 0.00 0.00 0.00 70 1016.0
20260507081554 52 346 3.5 6.1 0.00 0.00 0.00 71 1016.0
20260507081052 51 333 3.5 7.8 0.00 0.00 0.00 71 1016.0
20260507080552 51 338 6.1 7.8 0.00 0.00 0.00 72 1016.0
20260507080051 51 6 5.2 7.8 0.00 0.00 0.00 72 1015.9
20260507075551 51 341 3.5 7.8 0.00 0.00 0.00 72 1015.9
20260507075050 51 5 4.3 7.0 0.00 0.00 0.00 73 1015.8
20260507074550 51 359 4.3 6.1 0.00 0.00 0.00 72 1015.8
20260507074050 50 14 2.6 7.8 0.00 0.00 0.00 73 1015.8
20260507073548 50 319 5.2 7.8 0.00 0.00 0.00 74 1015.8
20260507073048 50 4 3.5 7.8 0.00 0.00 0.00 74 1015.8
20260507072547 50 316 3.5 9.6 0.00 0.00 0.00 73 1015.8
20260507072046 50 360 4.3 9.6 0.00 0.00 0.00 73 1015.7
20260507071547 49 30 6.1 8.7 0.00 0.00 0.00 72 1015.7
20260507071047 49 22 6.1 7.8 0.00 0.00 0.00 74 1015.7
20260507070546 49 355 5.2 8.7 0.00 0.00 0.00 76 1015.7
20260507070058 49 3 4.3 8.7 0.00 0.00 0.00 76 1015.7
20260507065545 49 19 6.1 8.7 0.00 0.00 0.00 76 1015.7
20260507065044 49 352 6.1 8.7 0.00 0.00 0.00 76 1015.7
20260507064544 49 337 3.5 9.6 0.00 0.00 0.00 78 1015.7
20260507064044 49 349 5.2 8.7 0.00 0.00 0.00 78 1015.7
20260507063543 49 2 5.2 7.8 0.00 0.00 0.00 79 1015.6
20260507063041 49 1 5.2 7.8 0.00 0.00 0.00 79 1015.5
20260507062541 48 3 4.3 7.0 0.00 0.00 0.00 80 1015.5
20260507062040 48 352 6.1 7.0 0.00 0.00 0.00 80 1015.5
20260507061540 48 326 4.3 7.0 0.00 0.00 0.00 81 1015.5
20260507061038 48 342 4.3 7.0 0.00 0.00 0.00 81 1015.5
20260507060542 48 354 4.3 6.1 0.00 0.00 0.00 81 1015.5
20260507060048 48 356 2.6 5.2 0.00 0.00 0.00 82 1015.4
20260507055539 48 34 2.6 5.2 0.00 0.00 0.00 83 1015.4
20260507055038 47 13 3.5 5.2 0.00 0.00 0.00 83 1015.3
20260507054537 47 328 3.5 5.2 0.00 0.00 0.00 84 1015.3
20260507054037 47 349 4.3 5.2 0.00 0.00 0.00 84 1015.3
20260507053537 46 321 2.6 5.2 0.00 0.00 0.00 84 1015.3
20260507053040 46 330 1.7 3.5 0.00 0.00 0.00 84 1015.2
20260507052535 46 316 1.7 4.3 0.00 0.00 0.00 84 1015.2
20260507052036 46 319 2.6 4.3 0.00 0.00 0.00 84 1015.1
20260507051540 46 325 2.6 3.5 0.00 0.00 0.00 84 1015.1
20260507051034 46 347 2.6 3.5 0.00 0.00 0.00 84 1015.1
20260507050534 46 338 1.7 3.5 0.00 0.00 0.00 84 1015.0
20260507050041 46 325 1.7 4.3 0.00 0.00 0.00 84 1014.9
20260507045534 46 327 2.6 4.3 0.00 0.00 0.00 84 1014.9
20260507045033 46 328 1.7 4.3 0.00 0.00 0.00 84 1014.9
20260507044532 46 347 2.6 6.1 0.00 0.00 0.00 84 1014.9
20260507044032 46 348 3.5 6.1 0.00 0.00 0.00 83 1014.8
20260507043530 46 342 2.6 5.2 0.00 0.00 0.00 83 1014.7
20260507043030 46 339 2.6 5.2 0.00 0.00 0.00 82 1014.7
20260507042530 46 342 3.5 5.2 0.00 0.00 0.00 83 1014.6
20260507042029 46 328 3.5 6.1 0.00 0.00 0.00 82 1014.6
20260507041531 46 315 3.5 6.1 0.00 0.00 0.00 81 1014.6
20260507041028 46 316 3.5 6.1 0.00 0.00 0.00 81 1014.6
20260507040528 46 327 4.3 6.1 0.00 0.00 0.00 81 1014.5
20260507040026 46 349 4.3 6.1 0.00 0.00 0.00 81 1014.5
20260507035526 47 333 4.3 6.1 0.00 0.00 0.00 80 1014.5
20260507035025 47 331 4.3 6.1 0.00 0.00 0.00 79 1014.4
20260507034537 47 333 4.3 6.1 0.00 0.00 0.00 80 1014.4
20260507034023 47 353 4.3 6.1 0.00 0.00 0.00 79 1014.3
20260507033523 47 12 4.3 6.1 0.00 0.00 0.00 78 1014.3
20260507033022 47 359 4.3 7.0 0.00 0.00 0.00 78 1014.3
20260507032521 47 15 3.5 7.0 0.00 0.00 0.00 78 1014.3
20260507032021 47 23 4.3 7.0 0.00 0.00 0.00 77 1014.3
20260507031520 47 27 4.3 7.0 0.00 0.00 0.00 79 1014.3
20260507031020 47 16 3.5 7.0 0.00 0.00 0.00 79 1014.2
20260507030520 47 11 3.5 7.8 0.00 0.00 0.00 79 1014.2
20260507030020 47 11 5.2 7.8 0.00 0.00 0.00 79 1014.1
20260507025518 47 5 4.3 7.0 0.00 0.00 0.00 80 1014.2
20260507025019 47 339 5.2 7.0 0.00 0.00 0.00 80 1014.1
20260507024530 47 1 5.2 7.8 0.00 0.00 0.00 80 1014.1
20260507024017 47 344 5.2 7.8 0.00 0.00 0.00 80 1014.1
20260507023521 48 338 5.2 7.0 0.00 0.00 0.00 79 1014.1
20260507023014 48 328 4.3 6.1 0.00 0.00 0.00 79 1014.1
20260507022513 48 321 4.3 6.1 0.00 0.00 0.00 79 1014.0
20260507022015 48 354 4.3 7.0 0.00 0.00 0.00 78 1014.0
20260507021511 48 11 4.3 7.0 0.00 0.00 0.00 78 1013.9
20260507021011 48 356 4.3 7.0 0.00 0.00 0.00 78 1013.8
20260507020510 48 4 4.3 7.0 0.00 0.00 0.00 77 1013.8
20260507020009 49 4 4.3 7.8 0.00 0.00 0.00 77 1013.7
20260507015513 49 15 5.2 7.8 0.00 0.00 0.00 77 1013.7
20260507015007 49 15 5.2 9.6 0.00 0.00 0.00 77 1013.7
20260507014509 49 357 6.1 8.7 0.00 0.00 0.00 77 1013.6
20260507014006 49 13 6.1 8.7 0.00 0.00 0.00 78 1013.7
20260507013504 49 333 6.1 8.7 0.00 0.00 0.00 78 1013.6
20260507013004 49 6 6.1 8.7 0.00 0.00 0.00 77 1013.6
20260507012502 49 347 6.1 8.7 0.00 0.00 0.00 77 1013.6
20260507012002 50 339 6.1 8.7 0.00 0.00 0.00 76 1013.6
20260507011502 50 354 6.1 8.7 0.00 0.00 0.00 76 1013.6
20260507011001 50 325 4.3 7.0 0.00 0.00 0.00 76 1013.6
20260507010559 50 350 5.2 7.0 0.00 0.00 0.00 76 1013.5
20260507010114 50 4 4.3 7.0 0.00 0.00 0.00 76 1013.5
20260507005559 50 357 5.2 7.8 0.00 0.00 0.00 75 1013.5
20260507005056 50 2 5.2 7.8 0.00 0.00 0.00 76 1013.4
20260507004556 50 360 5.2 7.8 0.00 0.00 0.00 76 1013.4
20260507004055 50 354 6.1 8.7 0.00 0.00 0.00 76 1013.3
20260507003553 50 342 5.2 8.7 0.00 0.00 0.00 76 1013.3
20260507003054 51 349 5.2 7.8 0.00 0.00 0.00 76 1013.3
20260507002552 51 337 5.2 7.8 0.00 0.00 0.00 76 1013.2
20260507002054 51 349 5.2 8.7 0.00 0.00 0.00 76 1013.2
20260507001558 51 342 6.1 9.6 0.00 0.00 0.00 75 1013.3
20260507001052 51 1 6.1 9.6 0.00 0.00 0.00 73 1013.2
20260507000552 51 348 5.2 7.8 0.00 0.00 0.00 73 1013.3
20260507000053 51 7 6.1 7.8 0.00 0.00 0.00 73 1013.3
20260506235548 51 347 6.1 7.8 0.00 0.00 0.00 72 1013.3
20260506235047 51 3 6.1 9.6 0.00 0.00 0.00 72 1013.2
20260506234548 51 352 7.0 9.6 0.00 0.00 0.00 72 1013.2
20260506234046 51 333 7.0 8.7 0.00 0.00 0.00 71 1013.1
20260506233546 51 334 7.0 9.6 0.00 0.00 0.00 71 1013.0
20260506233057 51 5 6.1 9.6 0.00 0.00 0.00 71 1013.0
20260506232544 51 348 7.8 9.6 0.00 0.00 0.00 70 1012.9
20260506232044 51 330 7.8 10.4 0.00 0.00 0.00 71 1012.9
20260506231543 51 355 7.8 10.4 0.00 0.00 0.00 71 1012.8
20260506231041 52 359 6.1 9.6 0.00 0.00 0.00 71 1012.8
20260506230541 52 350 7.8 10.4 0.00 0.00 0.00 71 1012.8
20260506230044 52 342 6.1 9.6 0.00 0.00 0.00 71 1012.8
20260506225540 52 354 7.0 9.6 0.00 0.00 0.00 72 1012.8
20260506225042 52 347 7.0 10.4 0.00 0.00 0.00 72 1012.8
20260506224538 52 344 7.0 10.4 0.00 0.00 0.00 72 1012.8
20260506224037 52 352 6.1 8.7 0.00 0.00 0.00 73 1012.8
20260506223537 52 326 7.0 9.6 0.00 0.00 0.00 72 1012.7
20260506223042 52 333 7.0 9.6 0.00 0.00 0.00 72 1012.7
20260506222536 52 342 6.1 7.8 0.00 0.00 0.00 74 1012.8
20260506222037 52 349 5.2 7.8 0.00 0.00 0.00 74 1012.8
20260506221542 52 323 4.3 6.1 0.00 0.00 0.00 75 1012.8
20260506221032 52 328 4.3 6.1 0.00 0.00 0.00 74 1012.7
20260506220532 52 1 4.3 6.1 0.00 0.00 0.00 73 1012.7
20260506220036 52 337 2.6 5.2 0.00 0.00 0.00 73 1012.7
20260506215530 52 354 2.6 5.2 0.00 0.00 0.00 73 1012.6
20260506215030 52 344 3.5 5.2 0.00 0.00 0.00 72 1012.6
20260506214530 52 345 4.3 6.1 0.00 0.00 0.00 71 1012.6
20260506214031 52 328 3.5 5.2 0.00 0.00 0.00 70 1012.5
20260506213529 52 319 3.5 6.1 0.00 0.00 0.00 70 1012.6
20260506213029 52 304 3.5 6.1 0.00 0.00 0.00 69 1012.6
20260506212530 53 302 2.6 5.2 0.00 0.00 0.00 70 1012.6
20260506212028 53 322 3.5 7.8 0.00 0.00 0.00 69 1012.5
20260506211530 53 323 4.3 7.8 0.00 0.00 0.00 68 1012.4
20260506211027 53 337 5.2 9.6 0.00 0.00 0.00 68 1012.4
20260506210526 53 323 6.1 9.6 0.00 0.00 0.00 69 1012.3
20260506210026 52 316 3.5 7.0 0.00 0.00 0.00 68 1012.3
20260506205525 52 337 4.3 6.1 0.00 0.00 0.00 67 1012.3
20260506205025 53 318 3.5 5.2 0.00 0.00 0.00 68 1012.2
20260506204526 53 331 3.5 5.2 0.00 0.00 0.00 68 1012.2
20260506204025 52 307 3.5 7.0 0.00 0.00 0.00 68 1012.2
20260506203523 53 314 4.3 7.0 0.00 0.00 0.00 68 1012.2
20260506203027 53 313 3.5 5.2 0.00 0.00 0.00 70 1012.2
20260506202523 52 298 2.6 4.3 0.00 0.00 0.00 69 1012.1
20260506202022 53 302 2.6 3.5 0.00 0.00 0.00 69 1012.0
20260506201526 53 297 2.6 3.5 0.00 0.00 0.00 69 1012.0
20260506201020 53 303 2.6 3.5 0.00 0.00 0.00 68 1012.0
20260506200520 53 288 0.9 1.7 0.00 0.00 0.00 67 1011.9
20260506200020 53 329 0.0 1.7 0.00 0.00 0.00 66 1011.9
20260506195520 53 335 0.9 1.7 0.00 0.00 0.00 66 1012.0
20260506195020 52 307 0.0 1.7 0.00 0.00 0.00 65 1011.9
20260506194519 53 340 0.0 1.7 0.00 0.00 0.00 67 1011.9
20260506194018 52 9 0.0 3.5 0.00 0.00 0.00 67 1011.9
20260506193518 53 13 1.7 3.5 0.00 0.00 0.00 68 1011.9
20260506193018 53 30 1.7 3.5 0.00 0.00 0.00 68 1011.9
20260506192518 53 20 1.7 4.3 0.00 0.00 0.00 67 1011.9
20260506192017 53 18 2.6 4.3 0.00 0.00 0.00 68 1011.8
20260506191516 53 25 2.6 4.3 0.00 0.00 0.00 67 1011.6
20260506191017 53 53 2.6 4.3 0.00 0.00 0.00 68 1011.5
20260506190516 53 41 0.9 2.6 0.00 0.00 0.00 66 1011.5
20260506190014 53 80 0.9 3.5 0.00 0.00 0.00 66 1011.4
20260506185515 53 53 1.7 4.3 0.00 0.00 0.00 67 1011.4
20260506185016 53 9 2.6 4.3 0.00 0.00 0.00 67 1011.3
20260506184521 53 9 1.7 5.2 0.00 0.00 0.00 66 1011.3
20260506184013 53 9 3.5 7.0 0.00 0.00 0.00 66 1011.2
20260506183513 53 25 4.3 7.8 0.00 0.00 0.00 65 1011.2
20260506183013 53 30 4.3 7.8 0.00 0.00 0.00 64 1011.0
20260506182511 53 70 4.3 6.1 0.00 0.00 0.00 64 1011.0
20260506182011 53 51 4.3 6.1 0.00 0.00 0.00 64 1011.0
20260506181511 53 45 3.5 5.2 0.00 0.00 0.00 65 1011.0
20260506181011 53 27 3.5 5.2 0.00 0.00 0.00 65 1010.9
20260506180509 53 28 3.5 7.0 0.00 0.00 0.00 65 1010.8
20260506180009 53 36 5.2 7.0 0.00 0.00 0.00 65 1010.8
20260506175508 53 34 4.3 7.0 0.00 0.00 0.00 64 1010.7
20260506175007 53 32 5.2 7.8 0.00 0.00 0.00 64 1010.6
20260506174506 53 44 2.6 7.8 0.00 0.00 0.00 66 1010.6
20260506174009 53 44 4.3 7.0 0.00 0.00 0.00 65 1010.5
20260506173505 53 25 4.3 7.0 0.00 0.00 0.00 64 1010.5
20260506173005 53 39 5.2 7.0 0.00 0.00 0.00 65 1010.4
20260506172505 53 46 3.5 7.0 0.00 0.00 0.00 64 1010.4
20260506172004 53 37 3.5 7.0 0.00 0.00 0.00 64 1010.4
20260506171504 53 28 3.5 9.6 0.00 0.00 0.00 65 1010.4
20260506171003 53 39 6.1 9.6 0.00 0.00 0.00 64 1010.3
20260506170505 53 47 6.1 7.8 0.00 0.00 0.00 63 1010.2
20260506170008 53 34 5.2 7.8 0.00 0.00 0.00 64 1010.2
20260506165503 53 17 5.2 9.6 0.00 0.00 0.00 64 1010.2
20260506165005 53 39 7.0 9.6 0.00 0.00 0.00 63 1010.2
20260506164502 53 22 6.1 12.2 0.00 0.00 0.00 64 1010.3
20260506164002 53 37 8.7 13.0 0.00 0.00 0.00 63 1010.2
20260506163502 53 37 7.8 13.0 0.00 0.00 0.00 64 1010.3
20260506163005 53 22 10.4 13.0 0.00 0.00 0.00 63 1010.3
20260506162502 53 19 7.8 13.0 0.00 0.00 0.00 63 1010.3
20260506162001 53 32 8.7 10.4 0.00 0.00 0.00 64 1010.2
20260506161612 53 41 6.1 11.3 0.00 0.00 0.00 63 1010.2
20260506161100 53 30 6.1 11.3 0.00 0.00 0.00 63 1010.2
20260506160600 53 44 7.0 10.4 0.00 0.00 0.00 63 1010.2
20260506160110 53 30 7.0 10.4 0.00 0.00 0.00 63 1010.2
20260506155600 53 32 6.1 7.8 0.00 0.00 0.00 64 1010.2
20260506155059 53 34 6.1 9.6 0.00 0.00 0.00 63 1010.2
20260506154602 53 33 6.1 9.6 0.00 0.00 0.00 64 1010.2
20260506154059 53 13 7.0 9.6 0.00 0.00 0.00 64 1010.2
20260506153559 53 30 6.1 9.6 0.00 0.00 0.00 64 1010.2
20260506153058 53 32 5.2 9.6 0.00 0.00 0.00 65 1010.2
20260506152558 53 30 6.1 9.6 0.00 0.00 0.00 64 1010.2
20260506152058 53 14 6.1 13.9 0.00 0.00 0.00 65 1010.2
20260506151558 53 22 8.7 13.9 0.00 0.00 0.00 65 1010.1